Vilafranca del Penedes, Spain
Current Conditions -  °F | °C
As of 9:30 AM on Thursday 27 Nov 2014 (Local Time) from LEBL Reporting Station
Few Clouds Few Clouds  
Wind Chill: 54°   Ceiling: Unl
Heat Index: 54°   Visibility: 6mi
Dew Point: 50°   Wind: 7mph
Humidity: 88%   Direction: 330°NNW
Pressure: 29.74"   Gusts: NA
Location:  41.35°N, 1.7°E
Report Text: LEBL 270830Z 33006KT 250V010 9999 FEW015 12/10 Q1007 TEMPO FEW020CB
Loading
Personal Weather Stations






























Interactive Weather Map New forecast layout! Learn more

10-Day Weather Forecast

Advertisements
Track Severe Weather on mobile